sat.trackr.live / text

‹ back to catalog

2024-092K

NORAD 59809 · 2024-092K

PAYLOAD ACTIVE UNKNOWN

§ Identity

Operator
Country
CIS
Launch date
2024-05-16
Launch site
PLMSC
Launch vehicle
Mass (kg)
RCS (m²)

External: N2YO · Heavens-Above · Gunter

§ Orbital elements

Epoch: 2026-05-25T02:30:31.677120Z

Period
93.77 min
Inclination
97.6537°
Eccentricity
0.0006970
Mean motion
15.35698448 rev/d
Perigee alt
454.1 km
Apogee alt
463.6 km
Semi-major
6,837.0 km
B*
5.2092e-4
RAAN
277.0260°
Arg perigee
223.3624°
Mean anomaly
136.7071°
Rev number
11,169

§ Raw data

2024-092K1 59809U 24092K   26145.10453330  .00018034  00000+0  52092-3 0  99912 59809  97.6537 277.0260 0006970 223.3624 136.7071 15.35698448111694

JSON: /api/v1/satellites/59809 · /tle

For live sub-satellite position, see the globe view (requires WebGL).

§ Visibility from observer

Set your observer location to see the next 7 days of passes ≥ 10°. The values pass through the URL so the page stays shareable.

No JS? Fill the form by hand. The geolocation button needs JavaScript.

§ Radio — SatNOGS DB

ModeDescriptionDownlinkUplink
FSK Telemetry USP 401.108 MHz

1 transmitter · refreshed weekly from db.satnogs.org